| time (UTC) | temp C | wind direction | speed KPH | gust KPH | rain 1hr cm | rain 24hr cm | rain mn cm | humidity % | barometer mb |
| 20260506214909 | 16 | 234 | 0.0 | 4.8 | 0.00 | 0.00 | 0.00 | 88 | 1011.3 |
| 20260506214437 | 16 | 131 | 0.0 | 4.8 | 0.00 | 0.00 | 0.00 | 88 | 1011.5 |
| 20260506213845 | 16 | 129 | 0.0 | 11.3 | 0.00 | 0.00 | 0.00 | 87 | 1011.7 |
| 20260506213414 | 16 | 125 | 3.2 | 11.3 | 0.00 | 0.00 | 0.00 | 87 | 1011.6 |
| 20260506212913 | 16 | 149 | 1.6 | 6.4 | 0.00 | 0.00 | 0.00 | 86 | 1011.6 |
| 20260506212410 | 16 | 228 | 0.0 | 4.8 | 0.00 | 0.00 | 0.00 | 86 | 1011.4 |
| 20260506211405 | 16 | 136 | 1.6 | 8.0 | 0.00 | 0.00 | 0.00 | 86 | 1011.3 |
| 20260506210417 | 16 | 138 | 1.6 | 11.3 | 0.00 | 0.00 | 0.00 | 85 | 1011.3 |
| 20260506204913 | 17 | 130 | 1.6 | 4.8 | 0.00 | 0.00 | 0.00 | 84 | 1011.3 |
| 20260506203844 | 17 | 136 | 0.0 | 4.8 | 0.00 | 0.00 | 0.00 | 84 | 1011.1 |
| 20260506203420 | 17 | 126 | 1.6 | 4.8 | 0.00 | 0.00 | 0.00 | 84 | 1011.1 |
| 20260506202932 | 17 | 215 | 0.0 | 4.8 | 0.00 | 0.00 | 0.00 | 84 | 1011.0 |
| 20260506202344 | 17 | 237 | 0.0 | 3.2 | 0.00 | 0.00 | 0.00 | 84 | 1010.9 |
| 20260506201932 | 17 | 136 | 0.0 | 1.6 | 0.00 | 0.00 | 0.00 | 84 | 1010.9 |
| 20260506201344 | 16 | 243 | 0.0 | 1.6 | 0.00 | 0.00 | 0.00 | 85 | 1011.1 |
| 20260506200923 | 16 | 205 | 0.0 | 3.2 | 0.00 | 0.00 | 0.00 | 86 | 1011.3 |
| 20260506195918 | 16 | 135 | 1.6 | 3.2 | 0.00 | 0.00 | 0.00 | 86 | 1011.6 |
| 20260506195437 | 16 | 254 | 1.6 | 3.2 | 0.00 | 0.00 | 0.00 | 86 | 1011.5 |
| 20260506195001 | 16 | 219 | 0.0 | 1.6 | 0.00 | 0.00 | 0.00 | 86 | 1011.4 |
| 20260506194348 | 16 | 257 | 0.0 | 4.8 | 0.00 | 0.00 | 0.00 | 87 | 1011.7 |
| 20260506193916 | 16 | 259 | 1.6 | 4.8 | 0.00 | 0.00 | 0.00 | 86 | 1011.8 |
| 20260506193404 | 16 | 158 | 0.0 | 3.2 | 0.00 | 0.00 | 0.00 | 87 | 1011.8 |
| 20260506192402 | 15 | 250 | 1.6 | 4.8 | 0.00 | 0.00 | 0.00 | 86 | 1011.7 |
| 20260506191935 | 15 | 254 | 3.2 | 4.8 | 0.00 | 0.00 | 0.00 | 86 | 1011.5 |
| 20260506190901 | 15 | 209 | 1.6 | 4.8 | 0.00 | 0.00 | 0.00 | 86 | 1011.5 |
| 20260506185912 | 15 | 217 | 3.2 | 6.4 | 0.00 | 0.00 | 0.00 | 86 | 1011.1 |
| 20260506184848 | 15 | 254 | 1.6 | 6.4 | 0.00 | 0.00 | 0.00 | 86 | 1011.1 |
| 20260506184428 | 15 | 250 | 1.6 | 8.0 | 0.00 | 0.00 | 0.00 | 87 | 1010.9 |
| 20260506183849 | 15 | 214 | 4.8 | 8.0 | 0.00 | 0.00 | 0.00 | 86 | 1010.6 |
| 20260506183421 | 15 | 259 | 4.8 | 8.0 | 0.00 | 0.00 | 0.00 | 85 | 1010.4 |
| 20260506182845 | 15 | 250 | 3.2 | 6.4 | 0.00 | 0.00 | 0.00 | 85 | 1010.4 |
| 20260506182432 | 15 | 248 | 1.6 | 6.4 | 0.00 | 0.00 | 0.00 | 85 | 1010.7 |
| 20260506181902 | 16 | 228 | 0.0 | 4.8 | 0.00 | 0.00 | 0.00 | 85 | 1010.7 |
| 20260506180857 | 16 | 242 | 1.6 | 4.8 | 0.00 | 0.00 | 0.00 | 84 | 1010.9 |
| 20260506180434 | 16 | 138 | 0.0 | 4.8 | 0.00 | 0.00 | 0.00 | 84 | 1011.7 |
| 20260506175846 | 16 | 240 | 1.6 | 4.8 | 0.00 | 0.00 | 0.00 | 84 | 1011.9 |
| 20260506174904 | 16 | 144 | 1.6 | 3.2 | 0.00 | 0.00 | 0.00 | 85 | 1012.3 |
| 20260506174419 | 16 | 136 | 0.0 | 4.8 | 0.00 | 0.00 | 0.00 | 85 | 1012.2 |
| 20260506173351 | 15 | 281 | 1.6 | 4.8 | 0.00 | 0.00 | 0.00 | 86 | 1011.6 |
| 20260506172941 | 15 | 281 | 1.6 | 4.8 | 0.00 | 0.00 | 0.00 | 86 | 1011.5 |
| 20260506172359 | 15 | 274 | 1.6 | 6.4 | 0.00 | 0.00 | 0.00 | 87 | 1011.9 |
| 20260506171930 | 14 | 246 | 3.2 | 6.4 | 0.00 | 0.00 | 0.00 | 87 | 1012.0 |
| 20260506171439 | 14 | 250 | 3.2 | 8.0 | 0.00 | 0.00 | 0.00 | 87 | 1012.3 |
| 20260506170847 | 14 | 260 | 0.0 | 4.8 | 0.00 | 0.00 | 0.00 | 88 | 1012.7 |
| 20260506170430 | 14 | 219 | 3.2 | 4.8 | 0.00 | 0.00 | 0.00 | 88 | 1012.8 |
| 20260506165409 | 14 | 243 | 1.6 | 8.0 | 0.00 | 0.00 | 0.00 | 88 | 1013.0 |
| 20260506164947 | 13 | 216 | 1.6 | 8.0 | 0.00 | 0.00 | 0.00 | 89 | 1013.8 |
| 20260506163909 | 13 | 117 | 0.0 | 3.2 | 0.00 | 0.00 | 0.00 | 89 | 1014.1 |
| 20260506162848 | 13 | 139 | 1.6 | 14.5 | 0.00 | 0.00 | 0.00 | 88 | 1014.2 |
| 20260506162414 | 13 | 130 | 1.6 | 8.0 | 0.00 | 0.00 | 0.00 | 88 | 1014.0 |
| 20260506161851 | 13 | 135 | 1.6 | 11.3 | 0.00 | 0.00 | 0.00 | 88 | 1014.0 |
| 20260506161422 | 14 | 155 | 3.2 | 11.3 | 0.00 | 0.00 | 0.00 | 87 | 1013.8 |
| 20260506160351 | 14 | 117 | 1.6 | 8.0 | 0.00 | 0.00 | 0.00 | 87 | 1013.3 |
| 20260506155420 | 14 | 136 | 1.6 | 4.8 | 0.00 | 0.00 | 0.00 | 87 | 1013.0 |
| 20260506154938 | 14 | 142 | 1.6 | 3.2 | 0.00 | 0.00 | 0.00 | 87 | 1012.6 |
| 20260506154453 | 14 | 142 | 1.6 | 11.3 | 0.00 | 0.00 | 0.00 | 87 | 1012.6 |
| 20260506153845 | 14 | 133 | 3.2 | 11.3 | 0.00 | 0.00 | 0.00 | 87 | 1012.6 |
| 20260506153405 | 15 | 175 | 1.6 | 6.4 | 0.00 | 0.00 | 0.00 | 87 | 1012.3 |
| 20260506152402 | 15 | 156 | 0.0 | 4.8 | 0.00 | 0.00 | 0.00 | 87 | 1012.1 |
| 20260506151927 | 15 | 205 | 1.6 | 4.8 | 0.00 | 0.00 | 0.00 | 86 | 1012.0 |
| 20260506151503 | 15 | 204 | 1.6 | 4.8 | 0.00 | 0.00 | 0.00 | 86 | 1011.9 |
| 20260506150851 | 15 | 134 | 1.6 | 4.8 | 0.00 | 0.00 | 0.00 | 86 | 1012.1 |
| 20260506145902 | 15 | 138 | 1.6 | 3.2 | 0.00 | 0.00 | 0.00 | 87 | 1012.2 |
| 20260506145440 | 15 | 139 | 0.0 | 4.8 | 0.00 | 0.00 | 0.00 | 87 | 1012.1 |
| 20260506144857 | 15 | 246 | 1.6 | 6.4 | 0.00 | 0.00 | 0.00 | 86 | 1011.8 |
| 20260506143917 | 15 | 227 | 0.0 | 4.8 | 0.00 | 0.00 | 0.00 | 87 | 1011.6 |
| 20260506142415 | 15 | 222 | 1.6 | 6.4 | 0.00 | 0.00 | 0.00 | 87 | 1011.2 |
| 20260506141355 | 15 | 210 | 1.6 | 6.4 | 0.00 | 0.00 | 0.00 | 86 | 1011.2 |
| 20260506140931 | 15 | 232 | 1.6 | 14.5 | 0.00 | 0.00 | 0.00 | 88 | 1011.4 |
| 20260506140345 | 15 | 128 | 3.2 | 14.5 | 0.00 | 0.00 | 0.00 | 87 | 1011.3 |
| 20260506135914 | 15 | 142 | 1.6 | 6.4 | 0.00 | 0.00 | 0.00 | 88 | 1011.1 |
| 20260506134852 | 15 | 223 | 1.6 | 3.2 | 0.00 | 0.00 | 0.00 | 88 | 1010.9 |
| 20260506134419 | 15 | 147 | 1.6 | 8.0 | 0.00 | 0.00 | 0.00 | 88 | 1010.8 |
| 20260506133416 | 15 | 207 | 0.0 | 6.4 | 0.00 | 0.00 | 0.00 | 89 | 1010.8 |
| 20260506132401 | 15 | 247 | 0.0 | 6.4 | 0.00 | 0.00 | 0.00 | 89 | 1010.8 |
| 20260506131934 | 15 | 211 | 1.6 | 6.4 | 0.00 | 0.00 | 0.00 | 88 | 1010.8 |
| 20260506131359 | 16 | 146 | 0.0 | 4.8 | 0.00 | 0.00 | 0.00 | 88 | 1010.8 |
| 20260506130353 | 16 | 197 | 0.0 | 4.8 | 0.00 | 0.00 | 0.00 | 89 | 1010.6 |
| 20260506125926 | 16 | 142 | 1.6 | 4.8 | 0.00 | 0.00 | 0.00 | 89 | 1010.6 |
| 20260506124902 | 16 | 134 | 1.6 | 6.4 | 0.00 | 0.00 | 0.00 | 88 | 1010.4 |
| 20260506124441 | 16 | 227 | 1.6 | 6.4 | 0.00 | 0.00 | 0.00 | 88 | 1010.3 |
| 20260506123858 | 16 | 105 | 1.6 | 4.8 | 0.00 | 0.00 | 0.00 | 88 | 1010.2 |
| 20260506123413 | 17 | 139 | 0.0 | 3.2 | 0.00 | 0.00 | 0.00 | 88 | 1010.1 |
| 20260506122851 | 17 | 252 | 0.0 | 0.0 | 0.00 | 0.00 | 0.00 | 88 | 1009.9 |
| 20260506122410 | 17 | 241 | 0.0 | 3.2 | 0.00 | 0.00 | 0.00 | 88 | 1009.9 |
| 20260506121354 | 17 | 135 | 1.6 | 3.2 | 0.00 | 0.00 | 0.00 | 87 | 1009.8 |
| 20260506120923 | 17 | 138 | 0.0 | 3.2 | 0.00 | 0.00 | 0.00 | 87 | 1009.7 |
| 20260506115918 | 17 | 124 | 0.0 | 1.6 | 0.00 | 0.00 | 0.00 | 86 | 1009.5 |
| 20260506114904 | 18 | 135 | 0.0 | 3.2 | 0.00 | 0.00 | 0.00 | 85 | 1009.4 |
| 20260506113849 | 18 | 202 | 0.0 | 1.6 | 0.00 | 0.00 | 0.00 | 83 | 1009.1 |
| 20260506112904 | 19 | 142 | 0.0 | 4.8 | 0.00 | 0.00 | 0.00 | 82 | 1009.1 |
| 20260506112433 | 20 | 232 | 0.0 | 3.2 | 0.00 | 0.00 | 0.00 | 81 | 1009.0 |
| 20260506111855 | 20 | 138 | 0.0 | 3.2 | 0.00 | 0.00 | 0.00 | 81 | 1008.8 |
| 20260506110909 | 20 | 133 | 1.6 | 3.2 | 0.00 | 0.00 | 0.00 | 80 | 1008.6 |
| 20260506110437 | 20 | 134 | 0.0 | 1.6 | 0.00 | 0.00 | 0.00 | 80 | 1008.5 |
| 20260506105842 | 21 | 142 | 0.0 | 3.2 | 0.00 | 0.00 | 0.00 | 81 | 1008.4 |
| 20260506105423 | 21 | 143 | 0.0 | 3.2 | 0.00 | 0.00 | 0.00 | 81 | 1008.4 |
| 20260506104359 | 21 | 133 | 0.0 | 1.6 | 0.00 | 0.00 | 0.00 | 80 | 1008.3 |
| 20260506103936 | 21 | 133 | 0.0 | 1.6 | 0.00 | 0.00 | 0.00 | 80 | 1008.3 |
| 20260506103340 | 22 | 133 | 0.0 | 1.6 | 0.00 | 0.00 | 0.00 | 82 | 1008.1 |
| 20260506102915 | 22 | 133 | 0.0 | 1.6 | 0.00 | 0.00 | 0.00 | 82 | 1008.1 |
| 20260506101917 | 23 | 92 | 1.6 | 8.0 | 0.00 | 0.00 | 0.00 | 87 | 1008.0 |
| 20260506101450 | 23 | 115 | 0.0 | 4.8 | 0.00 | 0.00 | 0.00 | 89 | 1008.0 |
| 20260506100901 | 23 | 67 | 0.0 | 3.2 | 0.00 | 0.00 | 0.00 | 89 | 1007.9 |
| 20260506100429 | 23 | 86 | 0.0 | 4.8 | 0.00 | 0.00 | 0.00 | 89 | 1007.8 |
| 20260506095401 | 23 | 66 | 0.0 | 8.0 | 0.00 | 0.00 | 0.00 | 89 | 1007.7 |
| 20260506094405 | 23 | 106 | 0.0 | 4.8 | 0.00 | 0.00 | 0.00 | 89 | 1007.6 |
| 20260506093936 | 23 | 106 | 0.0 | 4.8 | 0.00 | 0.00 | 0.00 | 89 | 1007.6 |
| 20260506093357 | 23 | 76 | 0.0 | 9.7 | 0.00 | 0.00 | 0.00 | 89 | 1007.6 |
| 20260506092928 | 23 | 90 | 0.0 | 9.7 | 0.00 | 0.00 | 0.00 | 89 | 1007.8 |
| 20260506092436 | 23 | 75 | 0.0 | 4.8 | 0.00 | 0.00 | 0.00 | 89 | 1007.6 |
| 20260506091847 | 23 | 83 | 1.6 | 8.0 | 0.00 | 0.00 | 0.00 | 89 | 1007.7 |
| 20260506091413 | 23 | 78 | 1.6 | 8.0 | 0.00 | 0.00 | 0.00 | 89 | 1007.6 |
| 20260506090929 | 23 | 89 | 0.0 | 4.8 | 0.00 | 0.00 | 0.00 | 89 | 1007.5 |
| 20260506085907 | 23 | 51 | 0.0 | 3.2 | 0.00 | 0.00 | 0.00 | 89 | 1007.6 |
| 20260506084906 | 23 | 67 | 0.0 | 4.8 | 0.00 | 0.00 | 0.00 | 89 | 1007.5 |
| 20260506083909 | 23 | 87 | 0.0 | 1.6 | 0.00 | 0.00 | 0.00 | 89 | 1007.5 |
| 20260506082912 | 23 | 82 | 0.0 | 4.8 | 0.00 | 0.00 | 0.00 | 89 | 1007.4 |
| 20260506081904 | 23 | 88 | 0.0 | 3.2 | 0.00 | 0.00 | 0.00 | 89 | 1007.4 |
| 20260506080907 | 23 | 82 | 0.0 | 1.6 | 0.00 | 0.00 | 0.00 | 89 | 1007.5 |
| 20260506073408 | 23 | 92 | 0.0 | 0.0 | 0.00 | 0.00 | 0.00 | 88 | 1007.4 |
| 20260506072929 | 23 | 92 | 0.0 | 0.0 | 0.00 | 0.00 | 0.00 | 88 | 1007.5 |
| 20260506072347 | 23 | 141 | 0.0 | 3.2 | 0.00 | 0.00 | 0.00 | 88 | 1007.8 |
| 20260506071934 | 23 | 71 | 0.0 | 3.2 | 0.00 | 0.00 | 0.00 | 87 | 1007.6 |
| 20260506070907 | 23 | 76 | 0.0 | 3.2 | 0.00 | 0.00 | 0.00 | 87 | 1007.3 |
| 20260506062404 | 23 | 80 | 0.0 | 4.8 | 0.00 | 0.00 | 0.00 | 88 | 1007.5 |
| 20260506061843 | 23 | 93 | 0.0 | 4.8 | 0.00 | 0.00 | 0.00 | 88 | 1007.5 |
| 20260506061344 | 23 | 110 | 0.0 | 1.6 | 0.00 | 0.00 | 0.00 | 88 | 1007.8 |
| 20260506060853 | 23 | 105 | 0.0 | 1.6 | 0.00 | 0.00 | 0.00 | 87 | 1007.5 |
| 20260506060351 | 23 | 103 | 0.0 | 0.0 | 0.00 | 0.00 | 0.00 | 87 | 1007.5 |
| 20260506051353 | 24 | 85 | 0.0 | 4.8 | 0.00 | 0.00 | 0.00 | 85 | 1007.6 |
| 20260506050923 | 24 | 101 | 1.6 | 4.8 | 0.00 | 0.00 | 0.00 | 86 | 1007.5 |
| 20260506050432 | 24 | 109 | 0.0 | 4.8 | 0.00 | 0.00 | 0.00 | 85 | 1007.3 |
| 20260506044916 | 24 | 142 | 0.0 | 3.2 | 0.00 | 0.00 | 0.00 | 85 | 1007.3 |
| 20260506043851 | 24 | 103 | 0.0 | 3.2 | 0.00 | 0.00 | 0.00 | 85 | 1007.3 |
| 20260506043432 | 24 | 119 | 0.0 | 3.2 | 0.00 | 0.00 | 0.00 | 84 | 1007.2 |
| 20260506042415 | 24 | 67 | 0.0 | 8.0 | 0.00 | 0.00 | 0.00 | 84 | 1007.3 |
| 20260506041359 | 24 | 90 | 1.6 | 6.4 | 0.00 | 0.00 | 0.00 | 85 | 1007.0 |
| 20260506040400 | 24 | 59 | 0.0 | 1.6 | 0.00 | 0.00 | 0.00 | 85 | 1006.6 |
| 20260506035355 | 24 | 59 | 0.0 | 1.6 | 0.00 | 0.00 | 0.00 | 85 | 1006.6 |
| 20260506034929 | 24 | 75 | 0.0 | 1.6 | 0.00 | 0.00 | 0.00 | 85 | 1006.6 |
| 20260506034349 | 24 | 75 | 0.0 | 0.0 | 0.00 | 0.00 | 0.00 | 84 | 1006.5 |
| 20260506033413 | 25 | 82 | 0.0 | 3.2 | 0.00 | 0.00 | 0.00 | 84 | 1006.4 |
| 20260506032403 | 25 | 119 | 0.0 | 1.6 | 0.00 | 0.00 | 0.00 | 84 | 1006.1 |
| 20260506031400 | 25 | 98 | 0.0 | 0.0 | 0.00 | 0.00 | 0.00 | 84 | 1006.0 |
| 20260506030931 | 25 | 93 | 0.0 | 0.0 | 0.00 | 0.00 | 0.00 | 84 | 1006.1 |
| 20260506030342 | 25 | 93 | 0.0 | 0.0 | 0.00 | 0.00 | 0.00 | 84 | 1006.1 |
| 20260506025910 | 25 | 93 | 0.0 | 0.0 | 0.00 | 0.00 | 0.00 | 84 | 1006.0 |
| 20260506024916 | 25 | 92 | 0.0 | 0.0 | 0.00 | 0.00 | 0.00 | 84 | 1006.1 |
| 20260506023911 | 25 | 94 | 0.0 | 0.0 | 0.00 | 0.00 | 0.00 | 84 | 1005.8 |
| 20260506022851 | 25 | 94 | 0.0 | 0.0 | 0.00 | 0.00 | 0.00 | 84 | 1005.7 |
| 20260506021849 | 25 | 93 | 0.0 | 0.0 | 0.00 | 0.00 | 0.00 | 84 | 1005.8 |
| 20260506021414 | 25 | 93 | 0.0 | 0.0 | 0.00 | 0.00 | 0.00 | 84 | 1005.9 |
| 20260506020400 | 25 | 93 | 0.0 | 0.0 | 0.00 | 0.00 | 0.00 | 83 | 1005.8 |
| 20260506015353 | 25 | 93 | 0.0 | 0.0 | 0.00 | 0.00 | 0.00 | 82 | 1005.8 |
| 20260506014355 | 25 | 93 | 0.0 | 0.0 | 0.00 | 0.00 | 0.00 | 81 | 1005.5 |
| 20260506013352 | 26 | 93 | 0.0 | 0.0 | 0.00 | 0.00 | 0.00 | 80 | 1005.6 |
| 20260506012917 | 26 | 93 | 0.0 | 0.0 | 0.00 | 0.00 | 0.00 | 80 | 1005.5 |
| 20260506011917 | 26 | 93 | 0.0 | 0.0 | 0.00 | 0.00 | 0.00 | 79 | 1005.4 |
| 20260506010903 | 26 | 93 | 0.0 | 0.0 | 0.00 | 0.00 | 0.00 | 78 | 1005.2 |
| 20260506005845 | 26 | 93 | 0.0 | 3.2 | 0.00 | 0.00 | 0.00 | 77 | 1005.1 |
| 20260506005407 | 26 | 99 | 0.0 | 1.6 | 0.00 | 0.00 | 0.00 | 77 | 1005.0 |
| 20260506004416 | 27 | 70 | 0.0 | 0.0 | 0.00 | 0.00 | 0.00 | 76 | 1004.7 |
| 20260506003951 | 27 | 70 | 0.0 | 0.0 | 0.00 | 0.00 | 0.00 | 76 | 1004.6 |
| 20260506003459 | 27 | 64 | 0.0 | 1.6 | 0.00 | 0.00 | 0.00 | 75 | 1004.6 |
| 20260506002914 | 27 | 64 | 0.0 | 12.9 | 0.00 | 0.00 | 0.00 | 75 | 1004.6 |
| 20260506002441 | 27 | 65 | 0.0 | 12.9 | 0.00 | 0.00 | 0.00 | 75 | 1004.5 |
| 20260506001844 | 27 | 87 | 1.6 | 3.2 | 0.00 | 0.00 | 0.00 | 74 | 1004.6 |
| 20260506001416 | 27 | 61 | 0.0 | 3.2 | 0.00 | 0.00 | 0.00 | 74 | 1004.6 |
| 20260506000934 | 27 | 61 | 0.0 | 6.4 | 0.00 | 0.00 | 0.00 | 74 | 1004.7 |
| 20260506000358 | 28 | 87 | 1.6 | 6.4 | 0.00 | 0.00 | 0.00 | 73 | 1004.7 |
| 20260505235410 | 28 | 259 | 1.6 | 3.2 | 0.00 | 0.00 | 0.00 | 73 | 1004.6 |
| 20260505234406 | 28 | 97 | 0.0 | 3.2 | 0.00 | 0.00 | 0.00 | 72 | 1004.6 |
| 20260505233401 | 28 | 92 | 1.6 | 6.4 | 0.00 | 0.00 | 0.00 | 71 | 1004.5 |
| 20260505232930 | 28 | 77 | 0.0 | 4.8 | 0.00 | 0.00 | 0.00 | 71 | 1004.5 |
| 20260505231902 | 28 | 266 | 0.0 | 3.2 | 0.00 | 0.00 | 0.00 | 70 | 1004.5 |
| 20260505231435 | 28 | 90 | 0.0 | 14.5 | 0.00 | 0.00 | 0.00 | 71 | 1004.4 |
| 20260505230935 | 28 | 74 | 3.2 | 14.5 | 0.00 | 0.00 | 0.00 | 70 | 1004.5 |
| 20260505230343 | 28 | 86 | 1.6 | 9.7 | 0.00 | 0.00 | 0.00 | 70 | 1004.3 |
| 20260505225353 | 29 | 348 | 1.6 | 8.0 | 0.00 | 0.00 | 0.00 | 69 | 1004.3 |
| 20260505224857 | 29 | 83 | 3.2 | 11.3 | 0.00 | 0.00 | 0.00 | 69 | 1004.3 |
| 20260505224434 | 29 | 246 | 1.6 | 12.9 | 0.00 | 0.00 | 0.00 | 69 | 1004.2 |
| 20260505222902 | 29 | 47 | 1.6 | 4.8 | 0.00 | 0.00 | 0.00 | 68 | 1004.2 |
| 20260505221916 | 30 | 112 | 1.6 | 6.4 | 0.00 | 0.00 | 0.00 | 67 | 1004.0 |
| 20260505220921 | 30 | 75 | 1.6 | 14.5 | 0.00 | 0.00 | 0.00 | 67 | 1004.1 |
| 20260505215915 | 30 | 83 | 3.2 | 14.5 | 0.00 | 0.00 | 0.00 | 67 | 1004.3 |